• In Uzbekistan
  • List of Countries
  • For 7 days
  • Water Temperature
  • Weather Map
  • Weather Widgets
  • user-avatar
    Login

    Hourly Weather Ngozi

    Today, 8 December, Sunday

    Time Temperature Precipitation Wind Pressure Humidity
    00:00 +18°C° 0.7 mm 1 mps 617 mmHg 95%
    01:00 +15°C° 0.7 mm 0 mps 617 mmHg 96%
    02:00 +15°C° 0 mm 0 mps 616 mmHg 97%
    03:00 +15°C° 0.7 mm 0 mps 616 mmHg 97%
    04:00 +15°C° 0.7 mm 0 mps 617 mmHg 97%
    05:00 +15°C° 0.7 mm 0 mps 617 mmHg 97%
    06:00 +16°C° 0.2 mm 0 mps 617 mmHg 96%
    07:00 +18°C° 0.2 mm 1 mps 618 mmHg 96%
    08:00 +18°C° 0 mm 1 mps 618 mmHg 94%
    09:00 +20°C° 0.6 mm 1 mps 619 mmHg 90%
    10:00 +22°C° 0.6 mm 1 mps 619 mmHg 86%
    11:00 +23°C° 0.6 mm 1 mps 619 mmHg 81%
    12:00 +23°C° 1.2 mm 1 mps 619 mmHg 81%
    13:00 +23°C° 1.2 mm 1 mps 618 mmHg 80%
    14:00 +22°C° 0 mm 0 mps 618 mmHg 79%
    15:00 +21°C° 1.4 mm 0 mps 618 mmHg 83%
    16:00 +20°C° 1.4 mm 0 mps 617 mmHg 88%
    17:00 +19°C° 1.4 mm 0 mps 617 mmHg 92%
    18:00 +18°C° 1.1 mm 0 mps 617 mmHg 92%
    19:00 +17°C° 1.1 mm 0 mps 617 mmHg 93%
    20:00 +16°C° 1.1 mm 0 mps 617 mmHg 93%
    21:00 +16°C° 0.8 mm 0 mps 618 mmHg 93%
    22:00 +16°C° 0.8 mm 0 mps 618 mmHg 94%
    23:00 +16°C° 0.8 mm 0 mps 618 mmHg 94%

    Tomorrow, 9 December, Monday

    Time Temperature Precipitation Wind Pressure Humidity
    00:00 +16°C° 0.4 mm 0 mps 617 mmHg 94%
    01:00 +16°C° 0.4 mm 0 mps 617 mmHg 95%
    02:00 +15°C° 0.4 mm 0 mps 617 mmHg 95%
    03:00 +15°C° 0.1 mm 0 mps 617 mmHg 95%
    04:00 +15°C° 0.1 mm 0 mps 617 mmHg 95%
    05:00 +15°C° 0.1 mm 0 mps 617 mmHg 95%
    06:00 +16°C° 0.1 mm 0 mps 617 mmHg 95%
    07:00 +16°C° 0.1 mm 0 mps 618 mmHg 94%
    08:00 +19°C° 0.1 mm 1 mps 619 mmHg 94%
    09:00 +19°C° 0.6 mm 1 mps 618 mmHg 91%
    10:00 +20°C° 0.6 mm 1 mps 618 mmHg 89%
    11:00 +21°C° 0.6 mm 1 mps 618 mmHg 86%
    12:00 +22°C° 0.4 mm 1 mps 618 mmHg 82%
    13:00 +22°C° 0.4 mm 1 mps 618 mmHg 77%
    14:00 +23°C° 0.4 mm 1 mps 618 mmHg 73%
    15:00 +20°C° 0.7 mm 0 mps 617 mmHg 78%
    16:00 +20°C° 0.7 mm 0 mps 617 mmHg 84%
    17:00 +19°C° 0.7 mm 0 mps 616 mmHg 89%
    18:00 +18°C° 0.3 mm 0 mps 616 mmHg 90%
    19:00 +17°C° 0.3 mm 0 mps 617 mmHg 91%
    20:00 +16°C° 0.3 mm 0 mps 617 mmHg 92%
    21:00 +16°C° 0.2 mm 0 mps 617 mmHg 93%
    22:00 +16°C° 0.2 mm 0 mps 617 mmHg 94%
    23:00 +18°C° 0.2 mm 1 mps 617 mmHg 95%

    Day after tomorrow, 10 December, Tuesday

    Time Temperature Precipitation Wind Pressure Humidity
    00:00 +18°C° 0.2 mm 1 mps 617 mmHg 96%
    01:00 +16°C° 0.2 mm 1 mps 617 mmHg 96%
    02:00 +16°C° 0.2 mm 1 mps 617 mmHg 97%
    03:00 +16°C° 0.1 mm 1 mps 617 mmHg 97%
    04:00 +16°C° 0.1 mm 1 mps 617 mmHg 97%
    05:00 +15°C° 0.1 mm 0 mps 616 mmHg 97%
    06:00 +16°C° 0.1 mm 0 mps 617 mmHg 95%
    07:00 +17°C° 0.1 mm 0 mps 618 mmHg 93%
    08:00 +18°C° 0.1 mm 0 mps 619 mmHg 92%
    09:00 +19°C° 1.3 mm 0 mps 619 mmHg 88%
    10:00 +21°C° 1.3 mm 0 mps 619 mmHg 84%
    11:00 +22°C° 1.3 mm 0 mps 619 mmHg 80%
    12:00 +22°C° 1.5 mm 0 mps 619 mmHg 81%
    13:00 +23°C° 1.5 mm 1 mps 618 mmHg 82%
    14:00 +23°C° 1.5 mm 1 mps 617 mmHg 82%
    15:00 +22°C° 1.2 mm 1 mps 617 mmHg 87%
    16:00 +20°C° 1.2 mm 1 mps 616 mmHg 91%
    17:00 +17°C° 1.2 mm 0 mps 615 mmHg 96%
    18:00 +17°C° 0.2 mm 0 mps 616 mmHg 96%
    19:00 +16°C° 0.2 mm 0 mps 616 mmHg 95%
    20:00 +16°C° 0.2 mm 0 mps 617 mmHg 95%
    21:00 +16°C° 0.1 mm 0 mps 617 mmHg 95%
    22:00 +16°C° 0.1 mm 0 mps 617 mmHg 95%
    23:00 +16°C° 0.1 mm 0 mps 618 mmHg 94%

    11 December, Wednesday

    Time Temperature Precipitation Wind Pressure Humidity
    00:00 +16°C° 0.2 mm 0 mps 617 mmHg 95%
    01:00 +16°C° 0.2 mm 1 mps 617 mmHg 96%
    02:00 +16°C° 0.2 mm 1 mps 616 mmHg 96%
    03:00 +16°C° 0.1 mm 1 mps 616 mmHg 97%
    04:00 +15°C° 0.1 mm 0 mps 616 mmHg 97%
    05:00 +14°C° 0.1 mm 0 mps 616 mmHg 97%
    06:00 +15°C° 0.4 mm 0 mps 617 mmHg 97%
    07:00 +15°C° 0.4 mm 0 mps 617 mmHg 97%
    08:00 +16°C° 0.4 mm 0 mps 618 mmHg 96%
    09:00 +17°C° 0.7 mm 0 mps 618 mmHg 94%
    10:00 +18°C° 0.7 mm 0 mps 619 mmHg 91%
    11:00 +19°C° 0.7 mm 0 mps 619 mmHg 88%
    12:00 +20°C° 1.7 mm 0 mps 618 mmHg 87%
    13:00 +20°C° 1.7 mm 0 mps 618 mmHg 86%
    14:00 +23°C° 1.7 mm 1 mps 618 mmHg 84%
    15:00 +20°C° 1.7 mm 0 mps 617 mmHg 87%
    16:00 +20°C° 1.7 mm 0 mps 617 mmHg 90%
    17:00 +19°C° 1.7 mm 0 mps 617 mmHg 93%
    18:00 +18°C° 1.3 mm 0 mps 617 mmHg 93%
    19:00 +16°C° 1.3 mm 0 mps 617 mmHg 93%
    20:00 +15°C° 1.3 mm 0 mps 617 mmHg 93%
    21:00 +16°C° 0.2 mm 1 mps 617 mmHg 93%
    22:00 +15°C° 0.2 mm 1 mps 617 mmHg 94%
    23:00 +15°C° 0.2 mm 1 mps 617 mmHg 95%

    12 December, Thursday

    Time Temperature Precipitation Wind Pressure Humidity
    00:00 +15°C° 0.1 mm 1 mps 617 mmHg 96%
    01:00 +14°C° 0.1 mm 1 mps 617 mmHg 96%
    02:00 +14°C° 0.1 mm 1 mps 616 mmHg 97%
    03:00 +13°C° 0.3 mm 0 mps 616 mmHg 97%
    04:00 +13°C° 0.3 mm 0 mps 617 mmHg 97%
    05:00 +13°C° 0.3 mm 0 mps 617 mmHg 97%
    06:00 +15°C° 0.2 mm 0 mps 618 mmHg 95%
    07:00 +16°C° 0.2 mm 0 mps 618 mmHg 93%
    08:00 +17°C° 0.2 mm 0 mps 619 mmHg 91%
    09:00 +18°C° 0.9 mm 0 mps 619 mmHg 87%
    10:00 +20°C° 0.9 mm 0 mps 619 mmHg 83%
    11:00 +21°C° 0.9 mm 0 mps 620 mmHg 79%
    12:00 +23°C° 1.2 mm 1 mps 619 mmHg 80%
    13:00 +23°C° 1.2 mm 1 mps 618 mmHg 81%
    14:00 +23°C° 1.2 mm 1 mps 617 mmHg 81%
    15:00 +22°C° 1 mm 1 mps 617 mmHg 85%
    16:00 +20°C° 1 mm 0 mps 617 mmHg 88%
    17:00 +19°C° 1 mm 0 mps 617 mmHg 91%
    18:00 +18°C° 0.6 mm 0 mps 617 mmHg 92%
    19:00 +16°C° 0.6 mm 0 mps 617 mmHg 92%
    20:00 +15°C° 0.6 mm 0 mps 617 mmHg 93%
    21:00 +14°C° 0 mm 0 mps 617 mmHg 93%
    22:00 +14°C° 0 mm 0 mps 617 mmHg 94%
    23:00 +13°C° 0 mm 0 mps 617 mmHg 94%

    13 December, Friday

    Time Temperature Precipitation Wind Pressure Humidity
    00:00 +13°C° 0 mm 0 mps 617 mmHg 94%
    01:00 +13°C° 0 mm 0 mps 616 mmHg 94%
    02:00 +13°C° 0 mm 0 mps 616 mmHg 94%
    03:00 +13°C° 0 mm 0 mps 616 mmHg 94%
    04:00 +12°C° 0 mm 0 mps 616 mmHg 94%
    05:00 +12°C° 0 mm 0 mps 616 mmHg 94%
    06:00 +14°C° 0 mm 0 mps 617 mmHg 92%
    07:00 +15°C° 0 mm 0 mps 618 mmHg 89%
    08:00 +17°C° 0 mm 0 mps 619 mmHg 87%
    09:00 +19°C° 0.2 mm 0 mps 620 mmHg 77%
    10:00 +22°C° 0.2 mm 0 mps 620 mmHg 68%
    11:00 +24°C° 0.2 mm 0 mps 621 mmHg 58%
    12:00 +24°C° 0.1 mm 0 mps 620 mmHg 57%
    13:00 +26°C° 0.1 mm 1 mps 619 mmHg 56%
    14:00 +26°C° 0.1 mm 1 mps 618 mmHg 55%
    15:00 +25°C° 0.7 mm 1 mps 618 mmHg 66%
    16:00 +23°C° 0.7 mm 1 mps 617 mmHg 77%
    17:00 +22°C° 0.7 mm 1 mps 617 mmHg 87%
    18:00 +20°C° 0.5 mm 1 mps 617 mmHg 89%
    19:00 +18°C° 0.5 mm 1 mps 617 mmHg 90%
    20:00 +15°C° 0.5 mm 0 mps 616 mmHg 91%
    21:00 +14°C° 0 mm 0 mps 617 mmHg 92%
    22:00 +14°C° 0 mm 0 mps 617 mmHg 93%
    23:00 +15°C° 0 mm 1 mps 617 mmHg 93%
    Show more